PY2KO-3 Weather Reports


time (UTC)temp
C
wind
direction
speed
KPH
gust
KPH
rain 1hr
cm
rain 24hr
cm
rain mn
cm
humidity
%
barometer
mb
20260510021909 21 0.0 0.0 0.00 0.00 0.00 84 1019.6
20260510020409 21 0.0 0.0 0.00 0.00 0.00 86 1019.5
20260510014908 21 0.0 0.0 0.00 0.00 0.00 88 1019.6
20260510013409 21 0.0 0.0 0.00 0.00 0.00 88 1019.4
20260510011909 21 0.0 0.0 0.00 0.00 0.00 89 1019.2
20260510010409 21 0.0 0.0 0.00 0.00 0.00 89 1019.5
20260510004916 21 0.0 0.0 0.00 0.00 0.00 83 1018.5
20260510003409 22 0.0 0.0 0.00 0.00 0.00 84 1018.6
20260510001926 21 0.0 0.0 0.00 0.00 0.00 85 1018.8
20260510000412 21 0.0 0.0 0.00 0.00 0.00 85 1019.0
20260509234911 22 0.0 0.0 0.00 0.00 0.00 82 1018.8
20260509233413 22 0.0 0.0 0.00 0.00 0.00 81 1018.7
20260509231917 22 0.0 0.0 0.00 0.00 0.00 83 1018.6
20260509230409 22 0.0 0.0 0.00 0.00 0.00 83 1018.5
20260509224909 22 0.0 0.0 0.00 0.00 0.00 81 1018.2
20260509223409 22 0.0 0.0 0.00 0.00 0.00 83 1018.2
20260509221910 22 0.0 0.0 0.00 0.00 0.00 80 1018.0
20260509220409 22 0.0 0.0 0.00 0.00 0.00 79 1017.5
20260509214922 23 0.0 0.0 0.00 0.00 0.00 77 1017.4
20260509213411 23 0.0 0.0 0.00 0.00 0.00 76 1016.9
20260509211909 24 0.0 0.0 0.00 0.00 0.00 73 1016.5
20260509210409 25 0.0 0.0 0.00 0.00 0.00 70 1016.2
20260509204909 25 0.0 0.0 0.00 0.00 0.00 71 1016.2
20260509203408 25 0.0 0.0 0.00 0.00 0.00 69 1015.8
20260509201911 26 0.0 0.0 0.00 0.00 0.00 66 1015.5
20260509200411 26 0.0 0.0 0.00 0.00 0.00 66 1015.3
20260509194911 26 0.0 0.0 0.00 0.00 0.00 64 1014.9
20260509193414 25 0.0 0.0 0.00 0.00 0.00 66 1015.1
20260509191909 27 0.0 0.0 0.00 0.00 0.00 62 1014.5
20260509190409 27 0.0 0.0 0.00 0.00 0.00 58 1014.3
20260509184909 28 0.0 0.0 0.00 0.00 0.00 56 1013.9
20260509183418 30 0.0 0.0 0.00 0.00 0.00 52 1013.3
20260509180409 30 0.0 0.0 0.00 0.00 0.00 45 1013.2
20260509174912 30 0.0 0.0 0.00 0.00 0.00 44 1013.3
20260509173410 30 0.0 0.0 0.00 0.00 0.00 43 1013.5
20260509171909 30 0.0 0.0 0.00 0.00 0.00 45 1013.5
20260509170414 30 0.0 0.0 0.00 0.00 0.00 42 1013.7
20260509164911 30 0.0 0.0 0.00 0.00 0.00 43 1013.8
20260509163410 30 0.0 0.0 0.00 0.00 0.00 47 1014.0
20260509161909 30 0.0 0.0 0.00 0.00 0.00 48 1014.1
20260509160413 29 0.0 0.0 0.00 0.00 0.00 47 1014.3
20260509154911 28 0.0 0.0 0.00 0.00 0.00 48 1014.5
20260509151928 29 0.0 0.0 0.00 0.00 0.00 46 1015.1
20260509150409 30 0.0 0.0 0.00 0.00 0.00 46 1015.0
20260509144915 28 0.0 0.0 0.00 0.00 0.00 48 1015.7
20260509143409 28 0.0 0.0 0.00 0.00 0.00 48 1015.7
20260509141909 27 0.0 0.0 0.00 0.00 0.00 50 1016.1
20260509140409 27 0.0 0.0 0.00 0.00 0.00 52 1016.2
20260509134908 27 0.0 0.0 0.00 0.00 0.00 53 1016.3
20260509133411 27 0.0 0.0 0.00 0.00 0.00 53 1016.6
20260509131909 26 0.0 0.0 0.00 0.00 0.00 53 1016.8
20260509130424 26 0.0 0.0 0.00 0.00 0.00 53 1016.9
20260509124909 26 0.0 0.0 0.00 0.00 0.00 53 1016.8
20260509123413 26 0.0 0.0 0.00 0.00 0.00 52 1016.7
20260509121914 26 0.0 0.0 0.00 0.00 0.00 53 1016.8
20260509120409 25 0.0 0.0 0.00 0.00 0.00 54 1016.7
20260509114909 24 0.0 0.0 0.00 0.00 0.00 55 1016.7
20260509113409 23 0.0 0.0 0.00 0.00 0.00 56 1016.2
20260509111910 23 0.0 0.0 0.00 0.00 0.00 58 1016.4
20260509110416 23 0.0 0.0 0.00 0.00 0.00 59 1016.3
20260509104909 23 0.0 0.0 0.00 0.00 0.00 59 1016.0
20260509103409 22 0.0 0.0 0.00 0.00 0.00 60 1015.9
20260509101909 22 0.0 0.0 0.00 0.00 0.00 59 1015.6
20260509100409 22 0.0 0.0 0.00 0.00 0.00 59 1015.4
20260509094917 22 0.0 0.0 0.00 0.00 0.00 60 1015.5
20260509093409 22 0.0 0.0 0.00 0.00 0.00 60 1015.3
20260509091910 22 0.0 0.0 0.00 0.00 0.00 60 1015.1
20260509090409 22 0.0 0.0 0.00 0.00 0.00 61 1015.0
20260509084909 22 0.0 0.0 0.00 0.00 0.00 60 1014.8
20260509083409 22 0.0 0.0 0.00 0.00 0.00 61 1014.6
20260509081909 22 0.0 0.0 0.00 0.00 0.00 62 1014.8
20260509080409 22 0.0 0.0 0.00 0.00 0.00 62 1014.8
20260509074909 22 0.0 0.0 0.00 0.00 0.00 63 1014.8
20260509073409 22 0.0 0.0 0.00 0.00 0.00 64 1014.7
20260509071909 22 0.0 0.0 0.00 0.00 0.00 64 1014.7
20260509070409 22 0.0 0.0 0.00 0.00 0.00 63 1014.7
20260509064909 22 0.0 0.0 0.00 0.00 0.00 65 1014.7
20260509063409 22 0.0 0.0 0.00 0.00 0.00 64 1014.7
20260509061909 22 0.0 0.0 0.00 0.00 0.00 64 1014.8
20260509060409 22 0.0 0.0 0.00 0.00 0.00 63 1014.7
20260509054909 22 0.0 0.0 0.00 0.00 0.00 64 1014.8
20260509053409 22 0.0 0.0 0.00 0.00 0.00 64 1014.8
20260509051909 22 0.0 0.0 0.00 0.00 0.00 64 1014.9
20260509050403 22 0.0 0.0 0.00 0.00 0.00 66 1014.9
20260509044909 21 0.0 0.0 0.00 0.00 0.00 69 1015.1
20260509043416 20 0.0 0.0 0.00 0.00 0.00 76 1015.4
20260509042118 20 0.0 0.0 0.00 0.00 0.00 79 1015.7
20260509040409 20 0.0 0.0 0.00 0.00 0.00 76 1015.3
20260509034909 20 0.0 0.0 0.00 0.00 0.00 75 1015.4
20260509033410 21 0.0 0.0 0.00 0.00 0.00 77 1015.4
20260509031909 21 0.0 0.0 0.00 0.00 0.00 77 1015.3
20260509030409 20 0.0 0.0 0.00 0.00 0.00 78 1015.3
20260509024930 21 0.0 0.0 0.00 0.00 0.00 77 1015.4
20260509023431 21 0.0 0.0 0.00 0.00 0.00 76 1015.2